Tracking 30995 objects as of 5-Jul-2025
HD Live streaming from Space Station
objects crossing your sky now

SL-19 DEB

Track SL-19 DEB now!
10-day predictions


NORAD ID: 23564
Int'l Code: 1994-085V
Perigee: 1,835.8 km
Apogee: 2,151.0 km
Inclination: 65.0 °
Period: 126.9 minutes
Semi major axis: 8364 km
RCS: 0.0721 m2 (small)
Launch date: December 26, 1994
Source: Commonwealth of Independent States (former USSR) (CIS)
Launch site: TYURATAM MISSILE AND SPACE COMPLEX (TTMTR)

Note: This is SATELLITE DEBRIS
Your satellite tracking list
Your tracking list is empty




NASA's NSSDC Master Catalog

Two Line Element Set (TLE):
1 23564U 94085V   25186.44228096  .00000014  00000-0  14595-2 0  9994
2 23564  64.9980 352.1012 0188432 153.6059 237.1954 11.34887297248822
Source of the keplerian elements: AFSPC